カタログに戻る

NADEZHDA 6

運用中通信SSO
NORAD 26384·PAYLOAD·🇷🇺 Russia

打ち上げ Jun 28, 2000 から Plesetsk Cosmodrome

Loading…

次のパス (今後24時間)

TLE

最新Source: Space-Track

元期: Sep 14, 2026, 09:03 UTC

1 26384U 00033A   26257.37771498  .00000543  00000-0  95180-4 0  9996
2 26384  97.8531 229.4269 0014456  69.2917 290.9838 14.71461573401302

AllMySatでNADEZHDA 6をリアルタイム追跡

Download on the App Store